Weather History for Shawano, WI

Change the Weather History Date:

Sunday, March 3, 2013

  Actual Average (KGRB) Record (KGRB)
Temperature  
Mean Temperature 18 °F 26 °F  
Max Temperature 32 °F 34 °F 62 °F (1894)
Min Temperature 3 °F 18 °F -24 °F (2014)
Degree Days  
Heating Degree Days 48 39  
Month to date heating degree days 119  
Since 1 July heating degree days 5959  
Cooling Degree Days 0 0  
Month to date cooling degree days 0  
Year to date cooling degree days 0  
Moisture  
Dew Point 6 °F    
Average Humidity 63    
Maximum Humidity 85    
Minimum Humidity 32    
Precipitation  
Precipitation 0.00 in 0.06 in 1.25 in (1989)
Month to date precipitation 0.17  
Year to date precipitation 2.41  
Snow  
Snow 0.00 in 0.40 in 12.70 in (1989)
Month to date snowfall 1.1  
Since 1 July snowfall 41.3  
Snow Depth -    
Sea Level Pressure  
Sea Level Pressure 30.11 in    
Wind  
Wind Speed 1 mph (SE)    
Max Wind Speed 6 mph    
Max Gust Speed -    
Visibility 10 miles    
Events      
T = Trace of Precipitation, MM = Missing Value Source: NWS Daily Summary

Daily Weather History Graph

Daily Weather History Graph

Search for Another Location

Airport:

Trip Planner

Search our weather history database for the weather conditions in past years. The results will help you decide how hot, cold, wet, or windy it might be!

Date:

Astronomy

Mar. 03, 2013 Rise Set
Actual Time 6:27 AM CST 5:44 PM CST
Civil Twilight 5:58 AM CST 6:14 PM CST
Nautical Twilight 5:24 AM CST 6:48 PM CST
Astronomical Twilight 4:50 AM CST 7:22 PM CST
Moon No Moon Rise 9:26 AM CST (3/3)
Length of Visible Light 12h 15m
Length of Day
11h 17m
Waning Gibbous, 63% of the Moon is Illuminated
Mar 3
Waning Gibbous
Mar 4
Last Quarter
Mar 11
New
Mar 19
First Quarter
Mar 27
Full

Hourly Weather History & Observations

Time (CST) Temp. Windchill Dew Point Humidity Pressure Visibility Wind Dir Wind Speed Gust Speed Precip Events Conditions
12:15 AM 10.4 °F - 5.0 °F 79% 30.16 in 10.0 mi Calm Calm - N/A   Clear
12:35 AM 10.4 °F - 5.0 °F 79% 30.16 in 10.0 mi Calm Calm - N/A   Scattered Clouds
12:55 AM 8.6 °F - 5.0 °F 85% 30.16 in 10.0 mi Calm Calm - N/A   Scattered Clouds
1:15 AM 8.6 °F - 5.0 °F 85% 30.16 in 10.0 mi Calm Calm - N/A   Clear
1:35 AM 8.6 °F - 5.0 °F 85% 30.16 in 10.0 mi Calm Calm - N/A   Clear
1:55 AM 10.4 °F - 5.0 °F 79% 30.15 in 10.0 mi Calm Calm - N/A   Clear
2:15 AM 8.6 °F - 5.0 °F 85% 30.14 in 10.0 mi Calm Calm - N/A   Clear
2:35 AM 6.8 °F - 3.2 °F 85% 30.14 in 10.0 mi Calm Calm - N/A   Clear
3:15 AM 6.8 °F - 1.4 °F 79% 30.14 in 10.0 mi Calm Calm - N/A   Clear
3:35 AM 8.6 °F - 3.2 °F 79% 30.14 in 10.0 mi Calm Calm - N/A   Clear
3:55 AM 5.0 °F - 1.4 °F 85% 30.14 in 10.0 mi Calm Calm - N/A   Clear
4:15 AM 3.2 °F - -0.4 °F 85% 30.14 in 10.0 mi Calm Calm - N/A   Clear
4:35 AM 5.0 °F - 1.4 °F 85% 30.14 in 10.0 mi Calm Calm - N/A   Clear
4:55 AM 5.0 °F - -0.4 °F 78% 30.14 in 10.0 mi Calm Calm - N/A   Clear
5:15 AM 5.0 °F - 1.4 °F 85% 30.14 in 10.0 mi Calm Calm - N/A   Clear
5:35 AM 5.0 °F - 1.4 °F 85% 30.14 in 10.0 mi Calm Calm - N/A   Clear
6:15 AM 3.2 °F - -0.4 °F 85% 30.14 in 10.0 mi Calm Calm - N/A   Clear
6:35 AM 3.2 °F - -2.2 °F 78% 30.15 in 10.0 mi Calm Calm - N/A   Clear
6:55 AM 5.0 °F - 1.4 °F 85% 30.15 in 10.0 mi Calm Calm - N/A   Clear
7:15 AM 3.2 °F - -0.4 °F 85% 30.15 in 10.0 mi Calm Calm - N/A   Clear
7:35 AM 5.0 °F - 1.4 °F 85% 30.15 in 10.0 mi Calm Calm - N/A   Clear
8:15 AM 10.4 °F - 6.8 °F 85% 30.15 in 10.0 mi Calm Calm - N/A   Clear
8:35 AM 12.2 °F - 8.6 °F 85% 30.15 in 10.0 mi Calm Calm - N/A   Clear
8:55 AM 17.6 °F 12.3 °F 5.0 °F 58% 30.15 in 10.0 mi WNW 3.5 mph - N/A   Clear
9:15 AM 19.4 °F - 5.0 °F 54% 30.14 in 10.0 mi Calm Calm - N/A   Clear
9:35 AM 21.2 °F - 5.0 °F 50% 30.14 in 10.0 mi Calm Calm - N/A   Clear
9:55 AM 23.0 °F - 6.8 °F 50% 30.14 in 10.0 mi Calm Calm - N/A   Clear
10:15 AM 26.6 °F 22.6 °F 8.6 °F 47% 30.13 in 10.0 mi East 3.5 mph - N/A   Clear
10:35 AM 26.6 °F 22.6 °F 8.6 °F 47% 30.13 in 10.0 mi East 3.5 mph - N/A   Clear
10:55 AM 28.4 °F 23.3 °F 10.4 °F 47% 30.12 in 10.0 mi East 4.6 mph - N/A   Clear
11:15 AM 28.4 °F 23.3 °F 10.4 °F 47% 30.12 in 10.0 mi East 4.6 mph - N/A   Clear
11:35 AM 28.4 °F - 10.4 °F 47% 30.11 in 10.0 mi Calm Calm - N/A   Clear
11:55 AM 28.4 °F - 8.6 °F 43% 30.11 in 10.0 mi Calm Calm - N/A   Clear
12:15 PM 30.2 °F - 8.6 °F 40% 30.10 in 10.0 mi Calm Calm - N/A   Clear
12:35 PM 32.0 °F 28.7 °F 8.6 °F 38% 30.09 in 10.0 mi East 3.5 mph - N/A   Clear
12:55 PM 30.2 °F 26.7 °F 8.6 °F 40% 30.09 in 10.0 mi SSE 3.5 mph - N/A   Clear
1:15 PM 30.2 °F 24.3 °F 8.6 °F 40% 30.08 in 10.0 mi WSW 5.8 mph - N/A   Clear
1:35 PM 30.2 °F - 6.8 °F 37% 30.07 in 10.0 mi Calm Calm - N/A   Clear
2:15 PM 30.2 °F - 5.0 °F 34% 30.06 in 10.0 mi Calm Calm - N/A   Clear
2:35 PM 32.0 °F 28.7 °F 8.6 °F 38% 30.06 in 10.0 mi SE 3.5 mph - N/A   Clear
2:55 PM 32.0 °F - 8.6 °F 38% 30.06 in 10.0 mi Calm Calm - N/A   Clear
3:15 PM 32.0 °F - 5.0 °F 32% 30.06 in 10.0 mi Calm Calm - N/A   Clear
3:35 PM 32.0 °F 28.7 °F 5.0 °F 32% 30.06 in 10.0 mi SW 3.5 mph - N/A   Clear
3:55 PM 32.0 °F - 5.0 °F 32% 30.06 in 10.0 mi Calm Calm - N/A   Clear
4:15 PM 32.0 °F - 5.0 °F 32% 30.06 in 10.0 mi Calm Calm - N/A   Clear
4:35 PM 32.0 °F 28.7 °F 5.0 °F 32% 30.06 in 10.0 mi SSE 3.5 mph - N/A   Clear
4:55 PM 28.4 °F 22.2 °F 10.4 °F 47% 30.06 in 10.0 mi SSE 5.8 mph - N/A   Clear
5:15 PM 28.4 °F 22.2 °F 10.4 °F 47% 30.06 in 10.0 mi South 5.8 mph - N/A   Clear
5:35 PM 28.4 °F 24.6 °F 10.4 °F 47% 30.06 in 10.0 mi SSE 3.5 mph - N/A   Clear
5:55 PM 28.4 °F - 10.4 °F 47% 30.07 in 10.0 mi Calm Calm - N/A   Clear
6:15 PM 26.6 °F - 10.4 °F 51% 30.07 in 10.0 mi Calm Calm - N/A   Clear
6:35 PM 24.8 °F - 10.4 °F 54% 30.08 in 10.0 mi Calm Calm - N/A   Clear
6:55 PM 19.4 °F - 8.6 °F 63% 30.08 in 10.0 mi Calm Calm - N/A   Clear
7:35 PM 17.6 °F - 8.6 °F 68% 30.09 in 10.0 mi Calm Calm - N/A   Clear
8:15 PM 15.8 °F - 8.6 °F 73% 30.08 in 10.0 mi Calm Calm - N/A   Clear
8:35 PM 19.4 °F - 10.4 °F 68% 30.09 in 10.0 mi Calm Calm - N/A   Clear
8:55 PM 19.4 °F - 10.4 °F 68% 30.09 in 10.0 mi Calm Calm - N/A   Clear
9:15 PM 21.2 °F 16.4 °F 10.4 °F 63% 30.10 in 10.0 mi WSW 3.5 mph - N/A   Clear
9:35 PM 21.2 °F - 10.4 °F 63% 30.10 in 10.0 mi Calm Calm - N/A   Clear
9:55 PM 17.6 °F - 8.6 °F 68% 30.10 in 10.0 mi Calm Calm - N/A   Clear
10:15 PM 14.0 °F - 8.6 °F 79% 30.10 in 10.0 mi Calm Calm - N/A   Clear
10:35 PM 14.0 °F - 8.6 °F 79% 30.10 in 10.0 mi Calm Calm - N/A   Clear
10:55 PM 12.2 °F - 6.8 °F 79% 30.10 in 10.0 mi Calm Calm - N/A   Clear
11:15 PM 8.6 °F - 3.2 °F 79% 30.10 in 10.0 mi Calm Calm - N/A   Clear
11:35 PM 8.6 °F - 3.2 °F 79% 30.10 in 10.0 mi Calm Calm - N/A   Clear
11:55 PM 8.6 °F 2.0 °F 3.2 °F 79% 30.11 in 10.0 mi North 3.5 mph - N/A   Clear